Location: Noulens
(43.8099°N, 0.1664°E)
Time: 17:49:02
(UTC+00:00)

IRS-1D - Pass Details

Date: 07 June 2020
Orbit: 740 x 817 km, 98.6° (Epoch: 09 July)

Event Time Altitude Azimuth Distance (km) Brightness Sun altitude
Rises 02:46:36 0° 8° (N) 3,329 7.9 -13.0°
Reaches altitude 10° 02:49:01 10° 4° (N) 2,385 6.9 -12.8°
Maximum altitude 02:54:05 50° 290° (WNW) 1,007 4.0 -12.2°
Enters shadow 02:58:00 16° 220° (SW) 1,944 4.9 -11.7°
